Temp
83 85 85 79 65 65 67 71 79 76 75 79 80 73 69 72 68 60 74 75 77 76 77 79 81 83 83 83 83 83 83 83 83 83 83 83 83 84 83 84 84 84 84 84 84 84 83 83 83
86 89 83 75 64 64 69 77 76 80 81 82 81 78 72 65 74 71 72 77 77 76 76 77 81 82 83 83 83 83 83 83 83 83 83 83 83 83 84 84 84 84 84 84 84 84 84 83 83
85 90 75 69 67 65 67 79 80 81 85 83 77 79 76 68 75 73 76 77 77 75 76 77 80 83 83 82 83 83 83 83 83 83 83 83 84 84 84 84 84 84 84 84 84 84 84 83 83
86 81 79 67 70 76 77 79 83 78 79 81 78 70 76 81 78 77 77 76 74 74 74 79 83 83 83 83 82 82 83 83 83 83 84 84 84 84 84 84 84 84 84 84 84 84 84 83 83
84 77 70 69 72 80 84 85 82 77 76 75 75 67 68 77 80 77 76 76 73 73 74 77 82 82 83 82 83 83 83 83 83 84 84 84 84 84 84 84 84 84 84 84 84 84 84 83 83
69 70 63 69 76 83 85 86 83 78 76 75 72 70 68 77 77 75 76 75 76 74 74 77 81 82 82 83 82 83 83 84 84 84 84 84 84 83 84 84 84 84 84 84 84 84 83 83 83
69 64 69 77 77 80 83 89 84 79 77 75 79 68 69 70 77 77 76 75 74 74 74 74 75 79 82 83 83 83 84 84 84 84 83 84 84 84 84 83 83 84 83 83 83 84 83 83 83
73 70 77 81 77 76 86 86 88 84 79 84 81 67 65 71 77 76 75 74 73 72 72 74 75 75 74 76 83 83 83 84 84 84 84 84 84 84 84 82 82 83 83 83 83 84 83 83 83
83 71 70 78 79 79 86 81 87 88 80 80 79 76 75 77 76 72 71 72 70 71 72 72 74 74 74 75 79 81 83 84 84 83 83 82 77 79 82 82 83 84 84 84 84 84 83 83 83
86 74 80 89 88 85 87 84 83 79 75 72 74 79 79 77 73 70 69 69 69 69 71 72 74 74 75 80 74 75 79 78 79 77 77 77 77 78 82 82 83 84 84 84 84 83 83 83 79
88 77 87 90 92 91 86 84 86 78 71 74 71 76 77 77 75 72 72 71 71 72 73 75 76 75 76 77 75 75 75 77 78 79 78 78 77 78 78 77 79 77 82 79 82 81 80 81 79
84 90 92 91 95 92 87 88 83 82 77 83 79 80 80 78 77 76 74 73 74 74 75 77 76 75 76 76 77 75 76 77 76 78 80 76 76 76 76 75 77 76 77 77 78 78 80 80 81
86 87 92 92 93 91 91 84 82 81 86 85 85 84 81 79 79 79 78 77 77 74 77 77 76 73 76 76 75 75 75 77 77 77 78 78 77 75 76 76 77 77 78 77 77 77 78 79 80
89 91 90 91 93 91 85 84 83 83 87 85 83 82 80 80 80 80 79 77 76 78 78 78 77 76 73 72 73 74 75 77 77 77 78 79 77 76 76 76 77 77 77 78 77 77 77 77 78
90 80 88 88 88 84 88 78 77 85 87 84 85 83 82 82 82 80 81 80 80 79 80 79 78 76 73 72 72 73 77 80 78 81 79 79 78 76 76 75 75 76 77 78 76 76 76 76 79
83 76 71 85 84 83 81 69 81 86 84 81 85 83 82 83 83 83 84 82 81 82 81 80 85 79 75 73 73 74 78 80 81 79 79 80 78 77 75 75 75 77 77 76 75 75 73 74 74
74 67 76 80 87 84 82 73 83 86 84 81 83 83 83 82 83 85 86 86 83 83 81 80 81 79 78 77 78 79 80 79 80 82 81 80 80 80 77 76 77 78 75 74 75 74 74 73 74
72 75 77 76 83 85 79 77 82 85 84 82 82 82 82 82 82 84 86 87 84 83 83 82 82 82 80 78 79 76 78 79 80 80 80 81 77 77 76 77 77 79 75 74 74 72 71 71 73
81 79 78 82 88 81 79 79 81 85 84 82 81 81 81 82 85 86 87 87 85 84 82 80 78 79 81 77 76 74 75 80 80 72 74 72 71 72 69 71 75 77 75 75 74 72 67 66 73
83 79 77 82 88 80 79 78 83 85 84 84 83 81 83 83 83 85 84 85 84 83 81 78 78 77 79 78 77 76 75 77 70 70 72 71 71 69 68 72 72 76 77 75 72 70 69 70 73
78 70 77 77 83 82 81 73 79 85 86 86 86 86 86 84 83 84 84 83 84 82 80 80 79 77 78 78 77 76 76 75 71 71 68 71 71 70 70 71 70 75 75 73 73 71 70 69 72
66 86 88 85 74 65 77 59 69 77 81 84 84 85 86 86 85 84 84 82 84 83 83 81 80 79 78 78 76 75 73 71 73 70 71 70 73 74 72 72 74 77 75 74 73 75 73 72 70
78 87 84 82 70 65 71 62 73 75 73 80 83 85 87 87 86 84 85 86 86 86 84 81 80 78 80 79 79 77 75 77 76 72 72 72 72 74 75 77 79 77 76 75 75 74 74 73 71
90 81 79 75 68 57 68 66 65 73 77 81 85 87 89 88 88 87 88 87 86 87 86 83 79 79 79 79 79 76 75 78 75 73 71 75 76 79 79 81 78 77 76 75 75 75 74 73 73
82 66 56 54 54 55 70 65 67 81 84 86 86 87 90 90 88 86 85 85 85 86 85 84 80 79 80 79 79 79 77 76 76 76 74 75 75 75 77 77 76 75 75 75 74 73 73 73 72
74 69 57 51 57 60 74 61 69 83 87 89 89 88 90 90 89 88 87 86 86 88 85 84 80 80 80 80 79 80 79 80 77 77 77 76 75 76 75 75 75 75 75 74 73 71 71 71 71
74 67 72 62 62 60 68 73 79 83 84 86 86 87 86 90 90 88 88 88 87 88 86 85 82 81 81 81 81 79 77 77 76 76 77 75 73 75 75 76 76 75 75 74 72 70 70 69 69
77 80 63 61 52 51 63 65 63 72 76 81 83 81 82 85 90 89 89 88 89 89 88 85 83 82 82 82 81 78 78 77 77 77 76 74 75 75 74 75 75 74 73 73 71 70 70 68 69
73 66 67 66 61 55 54 58 69 74 76 79 83 82 82 83 84 89 89 84 81 77 69 71 68 73 81 79 74 74 75 75 73 73 72 73 73 74 73 75 73 73 72 72 70 69 69 69 71
79 74 69 58 58 60 60 58 80 79 81 82 82 85 83 75 75 76 85 76 73 70 72 72 75 66 68 72 70 69 71 69 68 70 68 71 75 76 75 74 72 72 72 71 70 69 71 70 70
MSLP
1007.48 1007.72 1008.18 1008.13 1008.16 1006.97 1006.19 1005.80 1005.24 1005.72 1006.52 1007.20 1007.66 1008.78 1010.66 1011.30 1012.15 1014.41 1015.35 1015.72 1015.92 1016.20 1016.12 1016.17 1016.14 1016.14 1016.34 1016.55 1016.67 1016.88 1017.11 1017.20 1017.35 1017.39 1017.40 1017.60 1017.87 1017.88 1017.99 1018.17 1018.21 1018.38 1018.47 1018.62 1018.59 1018.53 1018.64 1018.65 1018.73
1007.43 1007.46 1007.76 1007.33 1006.88 1006.17 1006.08 1005.54 1005.53 1005.97 1006.82 1007.50 1008.57 1009.67 1010.63 1012.49 1013.22 1014.49 1015.39 1015.96 1016.15 1016.45 1016.52 1016.58 1016.66 1016.70 1016.82 1017.09 1017.25 1017.36 1017.56 1017.67 1017.63 1017.71 1017.78 1017.86 1018.18 1018.18 1018.37 1018.45 1018.52 1018.55 1018.73 1018.82 1018.80 1018.86 1018.74 1018.92 1018.97
1007.40 1007.01 1007.19 1006.78 1005.85 1005.63 1005.64 1005.36 1005.72 1006.63 1006.94 1007.44 1009.21 1010.42 1011.32 1013.09 1013.93 1014.69 1015.49 1016.11 1016.45 1016.83 1017.06 1017.14 1017.20 1017.10 1017.35 1017.58 1017.68 1017.84 1018.00 1017.97 1017.99 1018.06 1018.17 1018.22 1018.38 1018.50 1018.62 1018.78 1018.85 1018.80 1018.99 1019.03 1019.08 1019.09 1018.86 1018.99 1019.17
1007.26 1007.25 1006.61 1005.97 1005.18 1004.97 1005.00 1005.63 1005.91 1007.19 1008.60 1009.21 1009.51 1011.60 1012.88 1012.76 1013.71 1015.11 1015.99 1016.34 1016.88 1017.34 1017.42 1017.54 1017.58 1017.57 1017.81 1018.01 1018.15 1018.25 1018.24 1018.18 1018.16 1018.30 1018.44 1018.42 1018.56 1018.72 1018.80 1019.02 1019.08 1019.10 1019.11 1019.20 1019.23 1019.24 1019.23 1018.94 1019.13
1007.21 1006.91 1006.49 1005.38 1004.76 1004.42 1004.62 1005.06 1006.19 1007.59 1009.02 1010.24 1010.80 1012.98 1013.88 1014.41 1014.84 1015.70 1016.29 1016.84 1017.21 1018.11 1018.13 1017.79 1017.99 1018.15 1018.27 1018.44 1018.40 1018.47 1018.55 1018.54 1018.58 1018.66 1018.75 1018.84 1018.81 1018.81 1018.91 1019.07 1019.16 1019.26 1019.35 1019.44 1019.44 1019.42 1019.28 1019.20 1019.01
1008.29 1008.58 1007.33 1005.39 1004.50 1004.25 1004.46 1005.01 1006.01 1007.67 1009.36 1010.84 1011.67 1012.90 1014.73 1015.09 1015.46 1016.36 1016.70 1017.20 1017.47 1017.78 1017.90 1017.93 1018.20 1018.36 1018.63 1018.80 1018.74 1018.44 1018.73 1018.79 1018.81 1018.99 1019.08 1019.22 1019.16 1019.13 1019.10 1019.18 1019.20 1019.28 1019.43 1019.48 1019.58 1019.52 1019.32 1019.27 1019.26
1008.45 1008.66 1006.42 1004.75 1004.48 1004.22 1004.50 1004.76 1005.74 1007.38 1008.91 1010.42 1011.47 1013.04 1015.46 1015.88 1016.06 1016.65 1017.21 1017.64 1017.84 1018.06 1018.08 1018.24 1018.41 1018.67 1018.79 1018.68 1019.01 1019.02 1018.90 1019.05 1019.13 1019.32 1019.41 1019.50 1019.43 1019.33 1019.40 1019.40 1019.38 1019.45 1019.38 1019.48 1019.58 1019.47 1019.29 1019.20 1019.32
1008.27 1007.77 1005.23 1004.30 1004.28 1004.51 1004.60 1005.25 1006.04 1006.92 1008.85 1010.55 1010.51 1013.41 1015.39 1016.36 1016.59 1017.08 1017.64 1018.12 1018.64 1018.74 1018.87 1018.98 1019.07 1019.30 1019.25 1019.01 1019.00 1018.99 1019.26 1019.23 1019.28 1019.55 1019.48 1019.72 1019.49 1019.46 1019.48 1019.51 1019.51 1019.52 1019.44 1019.42 1019.48 1019.37 1019.23 1019.21 1019.43
1006.56 1006.57 1004.44 1003.56 1003.50 1004.33 1004.69 1005.70 1007.26 1008.29 1009.44 1010.68 1011.67 1013.20 1014.98 1016.12 1016.80 1017.50 1018.09 1018.66 1019.28 1019.51 1019.41 1019.39 1019.50 1019.52 1019.44 1019.16 1019.14 1018.92 1019.23 1019.23 1019.45 1019.63 1019.68 1019.69 1019.60 1019.47 1019.50 1019.54 1019.45 1019.52 1019.41 1019.38 1019.48 1019.40 1019.27 1019.10 1019.24
1004.02 1003.48 1002.98 1002.54 1002.85 1003.83 1004.70 1005.81 1007.37 1008.87 1010.65 1012.06 1012.95 1014.02 1014.95 1015.98 1016.81 1017.44 1018.00 1018.54 1019.20 1019.53 1019.61 1019.61 1019.67 1019.70 1019.51 1019.28 1019.63 1019.37 1019.31 1019.28 1019.43 1019.81 1019.66 1019.66 1019.52 1019.55 1019.45 1019.49 1019.41 1019.36 1019.29 1019.24 1019.25 1019.21 1019.10 1019.01 1019.02
1000.94 1002.10 1001.97 1002.11 1002.77 1003.34 1004.71 1006.14 1007.37 1008.67 1010.86 1011.90 1012.62 1013.66 1014.79 1015.57 1016.60 1017.20 1017.75 1018.14 1018.51 1019.05 1019.47 1019.44 1019.33 1019.25 1019.13 1019.15 1019.45 1019.37 1019.46 1019.31 1019.26 1019.43 1019.41 1019.39 1019.45 1019.33 1019.45 1019.42 1019.40 1019.35 1019.22 1019.19 1018.90 1018.90 1018.94 1018.80 1018.75
1000.90 1001.12 1001.42 1002.09 1002.62 1003.38 1004.53 1005.92 1007.55 1008.46 1010.10 1011.19 1012.22 1013.06 1013.90 1014.81 1015.69 1016.38 1017.18 1017.64 1018.10 1018.65 1018.91 1018.87 1018.83 1018.96 1019.01 1019.14 1019.19 1019.21 1019.22 1019.16 1019.21 1019.15 1019.11 1019.28 1019.41 1019.42 1019.44 1019.44 1019.35 1019.30 1019.27 1019.10 1018.82 1018.75 1018.55 1018.63 1018.44
1000.72 1001.05 1001.31 1002.06 1002.55 1003.86 1005.00 1006.50 1007.70 1008.98 1009.79 1011.04 1011.69 1012.55 1013.54 1014.42 1015.10 1015.81 1016.41 1017.00 1017.53 1018.16 1018.16 1018.39 1018.68 1018.95 1018.94 1018.98 1018.97 1019.02 1018.96 1019.04 1019.04 1019.08 1019.18 1019.30 1019.40 1019.43 1019.48 1019.37 1019.23 1019.20 1019.09 1019.09 1018.94 1018.75 1018.48 1018.34 1018.22
1001.13 1001.15 1001.64 1002.22 1003.06 1004.16 1005.16 1006.94 1007.39 1009.58 1009.98 1010.84 1011.54 1012.32 1013.25 1013.89 1014.56 1015.36 1016.01 1016.57 1017.19 1017.51 1017.61 1018.06 1018.51 1018.51 1018.80 1018.89 1018.96 1019.09 1019.00 1018.88 1018.86 1018.95 1019.13 1019.03 1019.13 1019.20 1019.24 1019.23 1019.08 1018.96 1018.88 1018.88 1018.90 1018.88 1018.65 1018.48 1018.28
1001.37 1001.63 1002.02 1002.58 1003.82 1004.90 1005.22 1007.58 1008.38 1009.33 1009.91 1010.56 1011.14 1011.99 1012.76 1013.39 1014.07 1014.56 1015.05 1015.67 1016.20 1016.80 1017.05 1017.63 1017.96 1018.14 1018.54 1018.82 1018.95 1019.05 1018.72 1018.66 1018.74 1018.45 1018.70 1018.76 1018.91 1019.14 1019.23 1019.25 1019.12 1018.77 1018.55 1018.57 1018.73 1018.83 1018.82 1018.70 1018.34
1001.88 1002.09 1002.86 1003.06 1003.68 1004.89 1004.62 1007.84 1008.56 1009.24 1009.82 1010.44 1010.84 1011.69 1012.34 1012.81 1013.35 1013.97 1014.47 1015.04 1015.74 1016.20 1016.69 1017.07 1017.37 1017.87 1018.12 1018.42 1018.54 1018.62 1018.42 1018.27 1018.20 1018.11 1018.21 1018.40 1018.73 1018.89 1019.13 1019.31 1019.24 1018.89 1018.82 1018.68 1018.65 1018.90 1019.21 1019.24 1019.07
1002.41 1002.35 1002.81 1003.20 1003.01 1004.28 1004.59 1007.27 1008.05 1008.64 1009.30 1009.94 1010.51 1011.14 1011.87 1012.53 1012.99 1013.47 1014.03 1014.52 1015.23 1015.67 1016.18 1016.66 1016.81 1017.18 1017.38 1017.58 1017.83 1017.62 1017.44 1017.42 1017.19 1017.11 1017.57 1017.81 1018.41 1018.50 1018.72 1018.76 1018.67 1018.41 1018.55 1018.45 1018.53 1018.84 1019.34 1019.45 1019.23
1002.76 1002.39 1002.14 1002.40 1003.31 1003.47 1004.94 1006.28 1007.18 1007.78 1008.58 1009.19 1009.86 1010.64 1011.39 1011.98 1012.47 1012.91 1013.36 1014.04 1014.63 1015.30 1015.74 1016.13 1016.38 1016.62 1016.85 1016.97 1016.97 1016.91 1016.93 1016.85 1016.83 1016.88 1017.21 1018.03 1018.24 1019.10 1018.78 1018.26 1018.39 1018.13 1018.51 1018.19 1018.49 1018.25 1020.26 1020.41 1019.34
1001.77 1001.23 1001.33 1001.77 1001.99 1003.20 1004.37 1005.53 1006.25 1006.88 1007.59 1008.52 1009.39 1010.03 1010.74 1011.36 1011.88 1012.40 1012.85 1013.41 1013.90 1014.66 1015.14 1015.39 1015.77 1016.11 1016.40 1016.55 1016.71 1016.85 1017.03 1017.14 1016.88 1017.58 1018.38 1018.78 1019.85 1018.48 1019.19 1019.79 1018.75 1018.23 1018.28 1018.07 1018.15 1019.16 1019.69 1019.64 1019.67
1000.90 1000.82 1000.85 1001.44 1001.56 1002.86 1004.28 1005.02 1005.54 1006.11 1006.62 1007.07 1008.35 1009.32 1009.87 1010.67 1011.28 1011.81 1012.34 1012.82 1013.34 1013.88 1014.40 1014.84 1015.21 1015.61 1015.99 1016.20 1016.35 1016.45 1016.64 1017.03 1017.34 1017.00 1018.02 1018.37 1019.02 1018.60 1017.74 1019.25 1018.81 1018.11 1017.96 1017.80 1018.47 1018.98 1019.55 1019.87 1019.00
1000.45 1000.63 1000.80 1001.08 1001.57 1002.37 1004.00 1005.20 1005.39 1005.53 1005.91 1006.53 1007.16 1007.90 1008.76 1009.32 1010.36 1011.10 1011.65 1012.18 1012.73 1013.36 1013.89 1014.40 1014.84 1015.18 1015.50 1015.71 1015.99 1016.25 1016.48 1016.72 1017.22 1016.89 1017.88 1017.82 1017.37 1016.45 1017.10 1017.88 1018.31 1017.59 1017.41 1017.41 1017.97 1018.49 1018.85 1019.09 1018.68
1000.38 1000.09 1000.40 1001.09 1002.23 1002.81 1003.37 1005.67 1005.49 1004.89 1005.30 1005.68 1006.32 1006.96 1007.61 1008.43 1009.31 1010.10 1010.79 1011.53 1012.18 1012.76 1013.32 1013.76 1014.21 1014.68 1015.21 1015.67 1016.06 1016.36 1016.43 1016.89 1016.79 1016.63 1016.35 1017.60 1016.75 1016.47 1016.87 1017.18 1016.92 1016.80 1016.75 1016.80 1017.27 1017.61 1017.91 1018.20 1018.18
1000.22 1000.32 1000.68 1001.29 1002.65 1003.37 1003.71 1004.68 1004.52 1004.80 1005.13 1005.18 1005.41 1005.86 1006.35 1007.08 1008.01 1008.99 1009.63 1010.44 1011.13 1011.94 1012.65 1013.12 1013.75 1014.47 1014.95 1015.34 1015.40 1015.65 1015.92 1015.88 1016.08 1016.51 1016.64 1016.72 1017.54 1017.09 1017.05 1016.82 1016.13 1016.18 1016.00 1016.07 1016.61 1016.74 1016.93 1016.95 1017.07
1000.18 1000.84 1001.54 1002.32 1003.42 1004.52 1003.83 1004.21 1004.36 1004.22 1003.62 1003.94 1004.31 1004.62 1004.98 1005.97 1006.92 1007.82 1008.59 1009.51 1010.27 1010.90 1011.67 1012.50 1013.07 1013.57 1014.14 1014.58 1015.18 1015.50 1015.94 1015.95 1016.07 1015.97 1016.11 1016.15 1016.11 1016.25 1015.81 1015.55 1015.63 1015.40 1015.56 1015.59 1015.71 1015.95 1016.20 1016.20 1016.16
1000.50 1001.64 1003.01 1004.44 1005.22 1004.87 1003.61 1003.56 1002.96 1002.53 1002.52 1002.51 1002.87 1003.50 1003.96 1004.70 1005.85 1007.06 1007.89 1008.42 1009.41 1009.83 1010.22 1011.22 1012.05 1012.54 1013.17 1014.09 1014.84 1015.15 1015.37 1015.32 1015.67 1015.83 1015.77 1015.48 1015.17 1015.07 1015.12 1015.33 1015.47 1015.40 1015.05 1015.18 1015.27 1015.69 1015.74 1015.65 1015.60
1000.85 1001.85 1003.15 1004.74 1005.30 1004.74 1003.17 1002.90 1002.17 1001.21 1001.50 1001.85 1001.65 1002.21 1003.01 1004.04 1005.01 1005.83 1006.72 1007.41 1007.78 1009.03 1009.58 1009.78 1010.51 1011.72 1012.59 1013.40 1014.09 1015.32 1015.71 1015.41 1015.43 1015.26 1015.26 1015.28 1015.35 1015.28 1015.41 1015.09 1015.16 1015.55 1015.46 1015.18 1015.26 1015.45 1015.31 1015.11 1014.91
1000.78 1001.47 1002.42 1004.19 1004.60 1004.95 1003.76 1003.05 1002.17 1001.58 1001.66 1001.64 1001.69 1002.00 1002.75 1003.59 1004.33 1005.22 1005.90 1006.48 1007.38 1007.88 1009.09 1009.36 1010.01 1011.62 1012.35 1012.81 1013.86 1014.93 1015.60 1016.45 1016.06 1015.78 1015.91 1015.87 1015.62 1015.43 1015.49 1015.44 1015.36 1015.10 1015.43 1015.33 1015.17 1015.00 1014.94 1014.74 1014.54
1000.22 1001.09 1002.65 1004.14 1005.23 1005.19 1004.07 1003.57 1003.06 1002.54 1002.22 1002.12 1002.19 1002.52 1002.81 1003.41 1003.96 1005.09 1005.51 1006.42 1006.71 1007.36 1008.42 1009.50 1010.63 1011.03 1011.79 1013.04 1014.25 1014.80 1015.62 1016.23 1016.28 1016.00 1016.03 1015.75 1015.64 1015.44 1015.38 1015.30 1015.00 1015.05 1014.98 1015.20 1014.66 1014.53 1014.39 1014.37 1014.22
1000.16 1001.08 1002.26 1003.43 1004.45 1005.06 1005.27 1004.90 1003.11 1002.92 1002.71 1002.62 1002.66 1003.22 1003.66 1004.44 1004.59 1005.00 1006.06 1008.49 1009.00 1010.28 1012.39 1012.53 1013.44 1014.05 1012.16 1012.84 1015.07 1015.71 1015.83 1015.36 1016.10 1016.61 1017.58 1017.23 1016.34 1015.12 1015.18 1014.82 1014.49 1014.65 1014.34 1014.77 1014.17 1014.20 1014.05 1014.07 1013.67
999.67 1000.64 1001.76 1003.64 1004.27 1004.55 1004.42 1004.44 1003.11 1002.81 1002.77 1002.94 1003.34 1003.67 1004.39 1005.32 1006.08 1007.11 1007.50 1008.84 1011.22 1012.62 1012.31 1011.48 1010.17 1013.32 1014.64 1012.12 1016.52 1019.15 1017.31 1016.64 1017.40 1017.47 1017.45 1016.94 1015.62 1014.73 1014.56 1014.22 1014.19 1014.29 1013.87 1014.35 1013.75 1013.95 1013.76 1013.53 1013.25
Wind_Speed
8 8 5 3 2 1 11 9 7 18 20 23 20 19 20 15 8 9 7 13 13 11 11 11 17 19 20 19 17 17 17 18 17 16 17 17 16 17 17 17 16 16 15 14 14 14 12 10 10
5 10 4 4 2 10 10 10 14 19 22 22 21 17 15 16 11 15 11 14 14 11 8 10 16 18 18 18 17 16 16 17 17 16 16 16 15 17 15 15 16 15 14 12 15 13 11 8 7
5 10 2 4 1 10 11 12 17 23 18 16 11 14 8 6 10 5 17 18 16 14 11 13 14 17 18 16 16 16 16 16 17 16 16 16 15 15 15 15 14 15 15 14 13 12 12 7 4
5 3 3 2 14 12 16 17 19 21 21 18 17 11 7 13 6 12 20 19 19 16 10 10 15 17 17 16 16 16 15 15 15 15 15 15 15 13 14 14 13 14 14 13 12 11 7 5 4
1 4 2 4 9 15 16 19 21 19 16 18 18 14 9 16 18 21 20 19 19 15 10 10 15 16 17 16 14 15 15 14 14 14 14 13 14 15 13 12 13 12 13 12 9 7 4 1 3
6 3 4 11 15 14 13 19 21 22 23 21 17 12 7 15 18 18 18 17 15 13 9 10 17 16 15 14 13 14 13 13 13 13 13 12 13 12 12 12 12 12 11 10 8 5 2 3 4
2 2 7 15 15 17 16 15 13 21 21 15 17 12 8 15 18 18 17 15 13 11 11 8 8 14 11 13 12 11 12 11 11 11 11 10 11 12 11 10 10 9 9 8 7 5 5 5 7
7 2 5 15 14 15 18 17 14 16 16 23 19 7 10 14 18 16 15 14 11 9 8 8 8 4 4 7 12 11 8 8 8 7 9 9 10 10 10 9 7 7 7 8 7 7 7 7 8
9 4 4 8 13 15 22 26 23 22 23 21 16 21 21 20 19 16 14 14 10 8 6 4 5 3 5 5 5 9 5 4 4 4 6 7 4 5 7 7 8 7 8 7 7 7 7 9 10
13 4 7 10 15 20 22 25 21 22 23 21 21 19 23 23 18 17 14 13 13 11 8 5 5 4 4 3 2 3 2 2 3 4 6 3 4 5 5 6 8 8 8 7 8 9 9 9 4
8 6 8 11 18 20 22 23 21 24 19 22 23 23 22 22 17 16 14 13 15 14 10 8 9 7 5 4 3 1 2 2 3 5 4 2 3 3 2 3 3 3 7 3 5 5 4 5 4
9 5 10 11 16 15 15 17 17 17 22 23 24 22 23 20 18 16 16 15 16 16 14 12 10 8 6 3 4 4 3 3 2 3 3 0 1 2 1 3 4 4 4 5 4 3 5 5 5
9 2 12 10 14 21 24 20 17 20 17 23 22 19 20 17 15 15 16 17 16 14 14 13 11 7 7 6 4 3 4 3 4 3 3 3 2 2 2 3 2 3 3 3 2 3 1 3 3
6 6 11 10 15 25 27 16 19 16 14 22 20 19 20 19 17 15 16 17 16 15 14 13 12 10 7 6 4 4 4 4 4 3 5 7 4 2 2 3 3 3 2 2 2 2 3 4 4
5 3 10 9 21 13 25 17 18 16 14 12 16 18 19 19 19 18 19 19 19 16 15 15 13 8 8 7 5 5 6 6 5 6 7 7 6 5 4 3 4 4 4 4 2 3 3 4 4
6 3 4 10 12 6 14 12 18 16 15 12 13 19 15 15 20 18 17 17 18 17 17 15 12 10 8 7 6 6 7 7 6 5 5 7 6 6 5 4 4 5 3 3 3 3 3 4 4
5 7 8 8 14 11 11 19 19 18 15 14 12 13 14 14 13 16 17 17 19 18 16 16 15 14 13 11 8 8 7 4 4 2 6 10 8 7 5 4 5 6 5 4 3 2 1 3 4
8 5 12 8 14 17 23 20 21 20 17 16 15 14 13 14 12 11 11 15 16 17 17 16 13 16 14 9 7 4 4 4 4 5 2 6 2 8 4 4 5 4 3 3 1 3 15 15 5
9 4 11 8 8 10 19 20 23 21 18 17 15 15 14 15 12 14 14 12 12 17 16 11 10 12 10 5 5 4 4 3 2 6 10 10 11 12 12 7 11 2 4 2 5 7 8 10 11
7 8 11 8 8 12 14 17 20 21 21 21 19 16 17 15 16 15 13 14 15 16 13 10 9 8 8 5 5 4 3 2 4 4 11 12 6 5 21 8 12 8 3 1 5 5 3 7 6
8 1 4 14 6 6 13 7 16 18 16 19 20 19 18 20 19 17 16 14 15 15 15 14 12 9 7 7 4 4 2 1 2 3 7 11 12 17 14 8 8 7 3 2 4 5 6 3 4
5 7 8 14 8 5 8 6 7 11 20 22 21 20 20 19 19 18 17 13 15 14 15 14 13 11 8 8 4 6 4 4 4 4 3 8 9 8 9 14 8 7 4 3 3 4 5 5 4
8 5 7 2 2 1 5 6 14 9 8 20 22 22 21 21 23 21 20 18 15 15 14 13 13 10 11 9 10 7 6 6 3 3 6 4 9 12 15 15 9 7 5 5 6 4 4 3 3
8 2 5 7 4 5 12 8 8 14 17 16 21 23 23 22 22 22 20 17 15 13 16 14 14 13 11 12 11 8 7 8 3 5 6 6 6 8 9 8 6 7 6 5 4 4 5 5 5
6 6 2 4 3 9 11 3 10 18 15 15 19 24 20 23 22 21 21 20 17 16 18 16 16 16 15 12 11 12 10 7 7 6 5 4 2 3 7 5 4 3 3 2 2 3 4 5 5
9 8 7 8 4 9 10 8 6 8 14 9 10 13 17 23 21 23 24 21 21 18 15 19 19 17 15 15 12 10 9 8 4 6 4 4 3 3 2 4 4 3 2 3 3 3 4 5 5
8 5 8 2 6 3 2 7 6 9 8 7 8 8 10 22 21 23 23 22 20 19 16 17 17 16 15 14 9 6 5 6 5 6 5 2 2 3 5 4 3 2 3 4 4 4 6 5 6
10 9 0 3 4 5 4 5 6 7 7 7 6 3 2 11 18 20 21 21 19 16 13 11 13 17 13 11 7 4 4 4 4 5 6 1 3 2 1 1 1 4 5 7 5 5 6 5 5
5 2 3 5 5 4 3 7 2 8 7 8 7 3 8 10 4 17 11 9 17 18 15 8 15 16 8 6 9 9 7 4 4 11 13 15 8 6 6 5 4 6 6 8 5 6 7 7 10
11 10 8 7 9 2 7 7 8 9 9 9 7 7 9 12 13 11 19 20 10 5 2 6 3 11 13 18 16 18 9 5 10 6 8 22 11 5 6 5 6 7 5 7 6 7 7 8 10
Wind_Direction
198 198 208 258 296 98 73 62 91 91 81 78 64 72 74 49 51 88 136 120 115 101 100 102 103 100 98 97 96 93 91 91 91 90 89 90 92 95 99 102 106 100 101 101 101 99 94 88 91
205 215 208 282 303 87 78 73 50 93 102 88 81 80 60 70 53 108 127 125 113 107 97 97 96 100 100 98 97 94 95 97 98 97 97 99 100 102 104 103 105 106 99 103 102 98 96 85 88
241 247 258 181 324 81 89 84 75 62 57 86 82 44 43 92 83 112 116 112 102 94 92 93 98 104 98 100 99 98 97 96 96 99 102 104 103 105 106 105 108 107 107 99 99 100 98 80 53
259 216 288 241 95 83 90 80 80 80 62 99 114 66 48 62 78 116 110 107 99 93 86 113 112 104 103 104 103 103 102 97 95 98 101 105 106 106 107 112 112 109 109 106 110 107 82 83 350
271 335 288 128 94 109 104 102 97 95 89 81 84 93 80 77 101 114 114 116 115 124 143 124 99 102 103 108 104 99 96 96 98 97 98 101 103 104 110 113 113 114 120 118 114 110 101 42 327
18 357 339 92 91 87 94 109 111 105 109 109 92 96 83 109 105 110 116 122 122 124 108 104 103 86 101 98 105 99 100 95 92 97 100 102 105 108 110 120 122 121 122 120 121 131 154 263 293
101 99 338 113 102 94 96 91 94 127 133 104 126 90 99 91 107 115 116 117 120 117 110 105 88 110 114 117 115 103 102 102 103 106 107 112 113 113 123 123 129 137 139 140 154 176 215 251 275
132 180 252 94 105 95 82 67 76 107 103 117 134 125 122 128 114 106 110 113 112 106 101 101 110 134 142 151 131 117 105 103 108 116 126 134 130 135 141 145 148 161 165 171 187 203 233 260 282
130 226 58 111 99 109 94 88 76 73 91 75 87 109 128 129 112 109 115 118 120 129 137 151 124 134 174 176 170 134 140 151 145 154 159 160 186 159 172 167 167 185 192 195 215 236 257 272 271
181 97 84 120 104 115 113 107 110 106 99 99 108 122 128 129 129 135 142 138 143 157 169 187 132 186 192 162 35 68 287 222 218 209 221 218 200 187 175 192 190 210 216 210 223 235 251 274 276
57 119 87 96 125 117 114 117 124 119 119 136 139 140 141 145 144 148 153 153 154 161 173 179 173 193 193 186 210 257 252 243 264 222 188 156 181 193 191 209 228 224 240 232 230 239 238 240 247
75 43 116 71 110 106 121 116 113 115 138 141 148 148 149 150 151 146 148 155 157 162 177 179 184 195 200 197 198 211 219 226 262 253 172 126 24 313 284 236 223 224 245 234 235 244 240 257 252
104 106 100 109 107 103 102 103 105 113 126 141 140 144 141 146 149 145 157 160 158 164 173 182 180 198 200 197 203 238 240 246 238 251 219 191 214 284 306 285 245 218 191 217 277 304 341 282 316
332 33 117 95 120 114 111 113 112 125 133 136 144 153 143 150 152 151 163 165 164 165 171 173 189 194 189 187 196 230 241 247 240 226 212 213 193 191 257 270 293 325 252 280 287 291 319 308 303
257 258 124 135 112 113 110 109 120 138 139 149 148 145 148 161 157 167 172 161 160 169 175 179 184 183 176 186 207 231 243 235 232 220 215 203 198 214 225 257 261 233 210 228 262 298 302 310 310
234 263 140 135 128 214 96 137 141 147 152 159 154 149 154 159 166 170 179 166 165 166 180 181 180 182 174 191 213 221 235 231 232 209 209 190 195 200 209 238 262 256 232 221 225 233 256 281 289
280 215 151 153 150 151 125 147 155 158 162 163 153 149 154 161 154 173 166 165 169 173 171 183 185 184 191 203 215 217 231 250 252 263 179 189 196 202 198 229 247 245 206 227 222 232 188 278 290
248 241 158 162 163 161 137 152 163 167 165 164 156 157 160 161 168 159 157 164 159 170 177 189 181 188 187 192 200 217 233 244 249 247 280 178 53 5 281 232 277 224 227 270 280 343 25 330 275
239 287 158 166 171 127 150 160 168 172 164 164 164 164 167 170 170 167 172 168 157 168 177 179 164 184 183 179 187 206 226 224 235 56 68 46 30 18 339 328 315 252 241 216 312 89 56 294 288
297 298 140 154 178 120 157 170 169 172 172 167 165 170 171 174 167 175 178 174 174 174 176 174 183 179 181 179 189 194 193 160 139 193 101 113 138 78 274 247 245 268 257 324 97 162 148 226 254
281 278 156 153 161 129 161 172 170 182 171 168 168 172 176 176 171 179 182 182 179 178 180 183 186 186 185 184 188 234 260 126 159 220 130 161 186 185 220 232 230 258 228 240 162 180 185 227 250
279 266 277 146 121 179 160 203 220 191 173 174 172 177 179 179 173 177 181 183 182 187 183 184 189 190 187 191 200 211 200 211 205 220 214 175 215 200 210 233 226 212 212 212 232 207 193 183 247
251 329 3 100 123 190 257 98 206 170 175 184 177 182 183 180 175 180 182 185 187 180 186 188 188 184 193 191 205 212 217 222 175 208 246 228 187 213 213 216 204 205 193 204 218 237 254 214 223
253 238 10 20 32 352 259 171 190 183 194 187 179 186 185 178 177 179 181 178 187 178 184 184 185 194 188 197 210 207 216 241 227 188 193 222 233 197 202 201 199 188 184 199 215 226 226 231 231
251 84 346 354 343 224 249 222 203 190 187 188 186 188 187 176 173 175 179 182 187 191 181 185 185 192 192 191 203 214 221 227 221 229 209 205 210 156 189 177 176 161 162 185 219 248 255 252 241
230 158 160 194 172 245 254 185 252 169 162 149 181 178 176 175 175 178 183 186 183 195 193 183 185 190 189 193 194 207 227 233 225 227 224 254 162 184 165 145 149 166 198 235 248 258 260 257 257
258 189 213 318 296 16 257 17 24 122 148 143 131 132 178 176 178 181 183 182 186 189 192 195 183 182 194 192 189 191 230 259 269 265 288 4 17 135 170 159 156 186 268 260 258 249 261 262 267
150 203 303 328 243 283 233 141 203 135 120 108 90 55 32 183 181 181 186 186 187 189 187 187 181 176 189 182 157 175 226 261 259 271 283 87 232 262 148 238 201 251 255 261 256 268 274 275 276
279 251 246 159 149 179 87 287 139 110 117 115 84 104 69 67 345 187 171 51 57 56 39 31 42 347 212 149 50 10 300 1 342 14 345 325 272 205 231 237 238 257 259 264 267 267 267 266 273
183 219 188 131 284 252 155 234 156 130 116 99 99 68 57 82 63 74 120 114 105 180 315 2 15 59 353 66 66 281 293 49 328 308 247 255 246 226 221 238 250 259 258 267 274 271 276 278 282